[Date Prev][Date Next][Thread Prev][Thread Next] - [Date Index][Thread Index][Author Index]

2 Line ISS Keps 12-31



ISS
1 25544U 98067A   01365.18228009  .00069980  00000-0  80038-3 0  9045
2 25544  51.6364 177.4202 0002925  79.4018 260.6635 15.61500112177811


----
Via the sarex mailing list at AMSAT.ORG courtesy of AMSAT-NA.
To unsubscribe, send "unsubscribe sarex" to Majordomo@amsat.org



AMSAT Top AMSAT Home